Location: Unspecified
(0.0000°N, 0.0000°E)
Time: 17:01:24
(UTC+00:00)

Hubble Space Telescope - Pass Details

Date: 17 January 2026
Orbit: 479 x 481 km, 28.5° (Epoch: 19 January)

Event Time Altitude Azimuth Distance (km) Brightness Sun altitude
Exits shadow 05:07:06 14° 343° (NNW) 1,396 2.5 -14.7°
Maximum altitude 05:09:22 23° 29° (NNE) 1,037 2.3 -14.2°
Drops below altitude 10° 05:12:26 10° 84° (E) 1,637 4.3 -13.4°
Sets 05:14:56 0° 99° (E) 2,516 5.9 -12.9°
